This is the latest recevied weather packets stored in our database for station/object K9NZF-1. If no packets are shown the sender has not sent any weather packets the latest 10 day(s).
| Time | Temp. | Humidity | Pressure | Rain* | Wind** | Luminosity | Snow |
|---|---|---|---|---|---|---|---|
| 1778258143 | 16.67° C | 57% | 1011.6 hPa | 0 mm | - | 299 W/m² | - |
| 1778258085 | 16.67° C | 57% | 1011.6 hPa | 0 mm | - | 253 W/m² | - |
| 1778258021 | 16.67° C | 58% | 1011.6 hPa | 0 mm | - | 193 W/m² | - |
| 1778257960 | 16.67° C | 58% | 1011.7 hPa | 0 mm | - | 193 W/m² | - |
| 1778257898 | 16.67° C | 57% | 1011.7 hPa | 0 mm | - | 204 W/m² | - |
| 1778257839 | 16.67° C | 58% | 1011.7 hPa | 0 mm | - | 221 W/m² | - |
| 1778257775 | 16.67° C | 58% | 1011.8 hPa | 0 mm | - | 239 W/m² | - |
| 1778257716 | 16.67° C | 57% | 1011.8 hPa | 0 mm | - | 255 W/m² | - |
| 1778257654 | 16.67° C | 58% | 1011.8 hPa | 0 mm | - | 255 W/m² | - |
| 1778257592 | 16.67° C | 60% | 1011.9 hPa | 0 mm | - | 250 W/m² | - |
| 1778257532 | 16.67° C | 59% | 1011.8 hPa | 0 mm | - | 255 W/m² | - |
| 1778257473 | 16.67° C | 57% | 1011.8 hPa | 0 mm | - | 308 W/m² | - |
| 1778257411 | 16.67° C | 58% | 1011.8 hPa | 0 mm | - | 369 W/m² | - |
| 1778257351 | 16.67° C | 57% | 1011.8 hPa | 0 mm | - | 441 W/m² | - |
| 1778257287 | 17.22° C | 59% | 1011.7 hPa | 0 mm | - | 387 W/m² | - |
| 1778257228 | 17.22° C | 59% | 1011.7 hPa | 0 mm | - | 387 W/m² | - |
| 1778257165 | 17.22° C | 60% | 1011.7 hPa | 0 mm | - | 387 W/m² | - |
| 1778257107 | 17.22° C | 57% | 1011.7 hPa | 0 mm | - | 387 W/m² | - |
| 1778257040 | 17.22° C | 57% | 1011.7 hPa | 0 mm | - | 341 W/m² | - |
| 1778256980 | 17.22° C | 59% | 1011.7 hPa | 0 mm | - | 1187 W/m² | - |
| 1778256918 | 17.22° C | 58% | 1011.7 hPa | 0 mm | - | 1187 W/m² | - |
| 1778256858 | 17.22° C | 58% | 1011.8 hPa | 0 mm | - | 1187 W/m² | - |
| 1778256795 | 16.67° C | 61% | 1011.8 hPa | 0 mm | - | 1053 W/m² | - |
| 1778256738 | 16.67° C | 59% | 1011.9 hPa | 0 mm | - | 998 W/m² | - |
| 1778256671 | 16.67° C | 60% | 1011.9 hPa | 0 mm | - | 909 W/m² | - |
* Rain latest hour (hover to see other rain measurements)
** Current wind speed in m/s (hover to see current wind gust speed)